Simultaneous Nadir Overpasses (SNOs) Predictions

Prediction of SNOs between FY3D and AQUA Satellite Orbit:

Table of predicted SNOs for the next 14.0 days since TLE Epoch: 10/22/2022
Index Date (FY3D) Time (FY3D) Lat,Lon (FY3D) SZA (FY3D ) Date (AQUA) Time (AQUA) Lat,Lon (AQUA) SZA (AQUA ) Distance(km) Time Diff (sec)
1 10/23/2022 17:09:15 -76.99, 89.38 91.35 10/23/2022 17:09:27 -76.99, 89.31 91.34 1.84 12
2 10/23/2022 17:59:48 76.40,-100.99 88.01 10/23/2022 17:58:41 76.39,-100.93 88.01 1.71 67
3 10/26/2022 07:45:36 -77.29,-130.97 90.10 10/26/2022 07:46:15 -77.29,-131.00 90.11 0.76 39
4 10/26/2022 08:36:09 76.71, 38.77 89.25 10/26/2022 08:35:29 76.70, 38.84 89.25 2.00 40
5 10/28/2022 22:21:55 -77.47, 9.18 89.02 10/28/2022 22:23:01 -77.48, 9.09 89.02 2.36 66
6 10/28/2022 23:12:28 76.90, 178.99 90.34 10/28/2022 23:12:15 76.90, 178.98 90.34 0.42 13
7 10/31/2022 13:48:50 77.21, -41.38 91.55 10/31/2022 13:49:03 77.21, -41.36 91.54 0.61 13
8 10/31/2022 14:39:14 -76.31, 129.57 89.46 10/31/2022 14:38:09 -76.31, 129.52 89.45 1.51 65
9 11/03/2022 04:25:08 77.36, 98.93 92.55 11/03/2022 04:25:47 77.36, 98.88 92.54 1.12 39



Historial Predications of SNOs between FY3D and AQUA
